Location: Brno
(49.2000°N, 16.6330°E)
Time: 16:00:17
(UTC+02:00)

Cosmos 2227 - Visible Passes

Search period start: 29 July 2016 00:00
Search period end: 08 August 2016 00:00
Orbit: 833 x 863 km, 71.0° (Epoch: 28 July)

Date Brightness Start Highest point End Pass type
(mag) Time Alt. Az. Time Alt. Az. Time Alt. Az.
29 Jul 7.1 00:59:26 10° N 01:02:03 13° NNE 01:04:38 10° NE visible
29 Jul 5.5 02:42:28 10° NNW 02:47:56 41° NE 02:53:22 10° ESE visible
29 Jul 4.7 04:26:47 10° NW 04:32:09 41° WSW 04:37:29 10° S visible
29 Jul 7.2 21:11:38 10° WNW 21:14:32 14° NNW 21:17:26 10° N visible
30 Jul 7.1 00:46:21 10° N 00:48:55 13° NNE 00:51:28 10° NE visible
30 Jul 5.5 02:29:22 10° NNW 02:34:50 41° NE 02:40:14 10° ESE visible
30 Jul 4.7 04:13:40 10° NW 04:19:03 41° WSW 04:24:25 10° S visible
31 Jul 7.0 00:33:17 10° N 00:35:48 13° NNE 00:38:19 10° NE visible
31 Jul 5.5 02:16:16 10° NNW 02:21:43 40° NE 02:27:07 10° ESE visible
31 Jul 4.6 04:00:34 10° NW 04:05:58 42° WSW 04:11:20 10° S visible
01 Aug 7.0 00:20:12 10° N 00:22:41 13° NNE 00:25:10 10° NE visible
01 Aug 5.5 02:03:11 10° NNW 02:08:37 40° NE 02:14:00 10° ESE visible
01 Aug 4.6 03:47:28 10° NW 03:52:53 43° WSW 03:58:15 10° S visible
02 Aug 7.0 00:07:08 10° N 00:09:33 13° NNE 00:11:59 10° NE visible
02 Aug 5.5 01:50:06 10° NNW 01:55:31 39° NE 02:00:53 10° ESE visible
02 Aug 4.6 03:34:21 10° NW 03:39:47 43° WSW 03:44:41 12° S visible
02 Aug 6.9 23:54:03 10° N 23:56:26 12° NNE 23:58:50 10° NE visible
03 Aug 5.5 01:37:00 10° NNW 01:42:24 39° NE 01:47:46 10° ESE visible
03 Aug 4.6 03:21:15 10° NW 03:26:42 44° WSW 03:30:23 19° S visible
03 Aug 6.9 23:40:58 10° N 23:43:19 12° NNE 23:45:40 10° NE visible
04 Aug 5.5 01:23:55 10° NNW 01:29:18 38° NE 01:34:31 11° ESE visible
04 Aug 4.6 03:08:09 10° NW 03:13:36 45° WSW 03:16:23 26° SSW visible
04 Aug 6.9 23:27:54 10° N 23:30:12 12° NNE 23:32:30 10° NE visible
05 Aug 5.5 01:10:49 10° NNW 01:16:12 38° NE 01:20:42 14° ESE visible
05 Aug 4.6 02:55:03 10° NW 03:00:30 45° WSW 03:02:35 32° SSW visible
05 Aug 6.8 23:14:49 10° N 23:17:05 12° NNE 23:19:20 10° NE visible
06 Aug 5.5 00:57:43 10° NNW 01:03:05 37° NE 01:07:02 17° ESE visible
06 Aug 4.6 02:41:56 10° NW 02:47:25 46° WSW 02:48:56 37° SSW visible
06 Aug 6.8 23:01:45 10° N 23:03:58 12° NNE 23:06:10 10° NE visible
07 Aug 5.4 00:44:38 10° NNW 00:49:59 37° NE 00:53:30 19° ESE visible
07 Aug 4.5 02:28:50 10° NW 02:34:20 47° WSW 02:35:24 42° SW visible
07 Aug 6.8 22:48:40 10° N 22:50:51 12° NNE 22:53:00 10° NE visible
